Wetbulb
41.94 41.81 41.93 41.33 40.66 40.64 40.27 39.28 38.90 38.45 37.97 37.57 37.27 37.46 37.67 36.58 36.14 35.56 34.44 33.16 32.48 32.39
41.54 41.25 41.44 41.04 39.94 39.08 38.72 39.58 38.32 37.70 37.56 37.42 37.60 37.68 37.76 36.18 35.36 34.56 34.84 33.64 32.54 32.65
40.93 40.70 39.95 38.99 38.32 37.61 37.48 37.95 37.52 38.56 37.05 37.51 37.81 36.86 35.69 35.26 33.82 33.13 32.70 33.02 30.00 28.44
38.62 38.28 37.89 37.70 37.16 37.00 37.04 37.28 37.00 36.86 36.79 37.42 36.67 33.94 32.66 31.58 31.76 31.70 29.79 28.83 28.46 28.10
37.26 37.64 37.69 36.42 36.47 36.43 36.30 36.64 36.16 36.40 37.73 37.36 34.36 32.20 30.66 31.06 30.63 29.01 27.74 27.71 27.38 27.17
36.15 36.38 36.07 35.67 35.88 35.78 35.04 34.63 35.64 37.84 36.11 35.50 33.12 31.67 31.96 29.57 28.59 27.49 27.39 27.10 26.58 26.36
35.70 36.00 35.60 35.66 35.59 35.19 35.43 34.72 37.13 36.38 35.91 32.92 32.33 31.37 29.00 28.22 27.53 27.30 27.32 27.40 26.85 26.49
35.80 36.65 36.51 36.33 35.95 36.00 35.89 36.22 38.60 36.24 33.29 31.13 30.32 29.80 28.36 28.62 28.18 27.07 26.57 26.84 27.05 26.88
35.64 35.91 36.13 35.45 34.82 35.37 34.70 34.04 34.19 31.68 30.01 28.52 29.87 32.67 32.98 30.78 27.93 26.82 25.73 24.17 24.11 24.38
34.96 34.60 34.73 34.18 34.00 33.64 32.85 32.24 29.62 27.63 27.49 27.18 28.76 30.67 30.44 29.80 26.23 23.87 23.04 22.27 21.99 22.41
33.75 33.26 33.34 32.91 32.65 32.19 31.32 30.16 27.81 27.36 27.23 27.02 26.32 28.18 28.59 28.18 24.57 23.00 22.83 22.59 22.29 22.00
33.14 32.64 32.48 31.04 30.27 29.88 29.13 27.59 27.81 27.85 26.08 23.20 22.97 26.89 26.77 25.75 22.60 22.31 21.89 22.87 22.95 23.19
32.60 31.76 29.92 29.48 28.58 28.91 27.38 27.81 26.93 26.04 24.69 25.61 22.43 24.73 26.15 25.33 20.72 16.45 20.73 22.37 22.70 23.24
31.45 29.85 29.36 28.01 27.06 26.51 26.51 26.01 24.16 24.27 23.70 23.72 23.65 22.40 25.27 26.13 20.63 20.56 21.97 21.18 20.59 22.19
MSLP
1025.28 1025.35 1025.33 1025.25 1025.19 1025.11 1024.92 1024.82 1024.81 1024.85 1024.87 1024.95 1025.08 1025.06 1024.93 1025.06 1025.04 1024.99 1025.00 1025.02 1024.87 1024.91
1025.46 1025.47 1025.58 1025.47 1025.29 1025.31 1025.16 1024.89 1024.97 1025.15 1024.67 1024.53 1024.61 1024.52 1024.56 1024.63 1024.76 1024.86 1024.77 1024.74 1024.67 1024.75
1025.30 1025.31 1025.37 1025.29 1025.17 1025.06 1024.90 1024.68 1024.52 1024.15 1024.43 1024.40 1024.41 1024.43 1024.56 1024.57 1024.45 1024.59 1024.58 1024.57 1024.65 1024.69
1025.43 1025.39 1025.22 1025.07 1024.97 1024.79 1024.46 1024.14 1023.96 1023.82 1024.15 1024.26 1024.27 1024.19 1024.21 1024.28 1024.27 1024.42 1024.53 1024.63 1024.58 1024.44
1025.29 1025.25 1025.26 1025.19 1024.90 1024.54 1024.21 1023.80 1023.99 1023.96 1023.96 1024.05 1024.00 1023.94 1023.99 1024.09 1024.17 1024.36 1024.58 1024.59 1024.42 1024.16
1025.37 1025.26 1025.00 1024.80 1024.58 1024.31 1024.34 1024.22 1023.92 1023.82 1023.86 1023.84 1023.73 1023.63 1023.75 1023.99 1024.11 1024.38 1024.52 1024.33 1024.20 1023.99
1025.04 1024.86 1024.76 1024.66 1024.57 1024.42 1024.14 1023.93 1023.78 1023.63 1023.62 1023.48 1023.48 1023.53 1023.82 1024.00 1024.20 1024.30 1024.23 1024.17 1023.97 1023.74
1024.86 1024.81 1024.69 1024.63 1024.45 1024.23 1024.03 1023.76 1023.41 1023.51 1023.51 1023.47 1023.29 1023.55 1023.88 1024.05 1024.15 1024.20 1024.16 1024.03 1023.81 1023.50
1024.67 1024.55 1024.56 1024.41 1024.21 1024.09 1023.99 1023.86 1023.72 1023.62 1023.63 1023.78 1023.70 1023.84 1023.83 1024.04 1024.23 1024.28 1024.22 1024.02 1023.63 1023.29
1024.54 1024.58 1024.43 1024.31 1024.19 1023.98 1023.89 1023.86 1023.87 1023.88 1023.91 1024.11 1024.18 1024.11 1024.02 1024.13 1024.26 1024.32 1024.26 1023.92 1023.54 1023.06
1024.44 1024.43 1024.29 1024.22 1023.94 1023.73 1023.67 1023.76 1023.99 1024.21 1024.24 1024.39 1024.46 1024.29 1024.10 1024.06 1024.33 1024.33 1024.12 1023.78 1023.38 1022.88
1024.22 1024.15 1024.09 1024.05 1023.81 1023.60 1023.65 1023.85 1023.96 1024.17 1024.41 1024.58 1024.65 1024.43 1024.30 1024.25 1024.34 1024.25 1023.93 1023.54 1023.10 1022.54
1024.03 1023.88 1023.91 1023.82 1023.63 1023.48 1023.63 1023.69 1023.98 1024.31 1024.52 1024.62 1024.72 1024.66 1024.38 1024.25 1024.20 1024.14 1023.71 1023.25 1022.80 1022.40
1023.63 1023.64 1023.64 1023.69 1023.60 1023.50 1023.62 1023.91 1024.19 1024.40 1024.61 1024.68 1024.69 1024.73 1024.43 1024.13 1023.91 1023.78 1023.40 1023.12 1022.68 1022.24
Wind_Speed
2 2 4 4 4 4 4 2 4 4 2 1 3 4 4 2 3 3 3 6 4 3
4 4 4 6 5 3 5 2 2 2 2 4 5 7 4 4 5 4 4 5 4 3
4 6 6 5 6 5 4 2 4 7 5 5 6 5 5 4 5 4 4 3 3 3
4 4 4 4 4 5 5 7 8 5 4 4 4 6 5 5 5 5 3 3 3 5
3 4 4 5 6 6 7 6 4 3 4 4 6 6 4 6 3 2 4 5 5 6
4 3 4 5 6 6 6 5 5 4 5 6 6 4 3 1 0 2 5 5 5 7
5 5 5 6 6 6 6 6 5 5 6 5 4 1 3 2 3 5 5 5 6 7
5 5 5 6 7 6 6 5 5 5 5 3 3 3 2 3 5 5 5 5 7 8
4 5 6 6 6 6 6 5 3 3 3 4 4 6 7 6 4 5 7 8 9 9
4 5 6 6 6 6 5 4 4 3 4 5 4 8 8 8 4 5 6 8 9 10
5 6 6 6 6 5 3 1 3 3 4 4 4 9 9 10 4 4 7 8 8 9
6 6 5 6 6 5 1 3 3 3 4 4 3 8 9 8 4 6 8 9 8 10
5 5 5 6 6 2 1 2 4 4 3 4 3 6 8 8 2 4 6 6 8 13
6 4 4 5 3 3 3 4 3 3 2 2 1 4 8 10 2 4 5 6 7 7
Wind_Direction
285 270 269 266 268 260 248 251 191 192 169 315 283 275 245 276 274 265 271 279 277 278
343 336 297 293 287 311 324 290 245 287 226 238 257 267 265 246 266 270 272 271 280 271
357 357 345 329 322 319 297 259 208 219 235 246 267 273 261 269 263 261 277 261 269 285
346 337 346 349 309 269 245 232 238 217 240 266 297 271 255 261 274 270 273 298 290 291
332 351 336 302 276 264 255 258 274 261 271 287 289 268 257 271 299 291 302 291 297 299
286 276 283 290 298 300 306 304 272 279 292 290 279 280 286 232 342 295 282 300 291 292
260 269 290 306 308 303 288 274 274 272 272 275 290 81 98 49 320 305 303 295 288 292
293 302 300 295 287 298 309 292 293 313 313 320 88 68 50 349 327 316 310 310 311 304
296 302 285 286 307 310 309 309 318 5 53 51 51 26 10 28 2 352 337 321 314 308
287 296 288 302 303 301 299 305 347 79 79 64 51 34 10 15 360 341 319 312 310 310
298 285 292 302 297 291 284 312 126 100 81 86 42 16 5 351 337 319 304 302 301 308
283 296 302 306 301 297 190 145 158 137 105 81 32 12 2 352 334 310 307 307 312 310
296 295 301 298 302 270 239 172 135 125 116 93 41 357 351 347 278 294 302 310 312 318
295 290 300 313 296 269 157 140 124 124 128 108 28 325 330 331 283 293 317 321 319 319